Little Pigeon at Sevierville [ USA-TNN ]

Edit Gauge

Current Conditions

Reading of "n/a" = frozen gauge or gauge error.
Reading Trend Type Updated
199 cfs -0 cfs/hr Flow -09h19m
1.52 ft -0.00 ft/hr Feet Stage -09h19m

Station Description

AW Gauge ID: 50462
Source: tva
Station: ls006
Enabled yes
Data is courtesy of TVA. These provisional data have not been reviewed or edited, and may be subject to significant change. Source Gauge's Page

Information

Feet Stage

Gauge History

Times listed in GMT 24h, ET and PT hours provided for convenience Graphs in GMT. Readings of "n/a" constitute a frozen gauge or gauge error.
Reading Updated (GMT) Eastern Pacific Comment
1.52 12/16/2017 04:58:40 Dec 15 11:58 pm Dec 15 8:58 pm
1.51 12/15/2017 17:59:28 Dec 15 12:59 pm Dec 15 9:59 am
1.53 12/15/2017 16:00:00 Dec 15 11:00 am Dec 15 8:00 am
1.54 12/15/2017 14:58:08 Dec 15 09:58 am Dec 15 6:58 am
1.55 12/15/2017 13:58:24 Dec 15 08:58 am Dec 15 5:58 am
1.56 12/15/2017 12:58:40 Dec 15 07:58 am Dec 15 4:58 am
1.56 12/15/2017 11:58:56 Dec 15 06:58 am Dec 15 3:58 am
1.56 12/15/2017 10:59:12 Dec 15 05:59 am Dec 15 2:59 am
1.56 12/15/2017 09:59:28 Dec 15 04:59 am Dec 15 1:59 am
1.56 12/15/2017 08:59:44 Dec 15 03:59 am Dec 15 12:59 am
1.56 12/15/2017 08:00:00 Dec 15 03:00 am Dec 15 12:00 am
1.57 12/15/2017 06:58:08 Dec 15 01:58 am Dec 14 10:58 pm
1.57 12/15/2017 05:58:24 Dec 15 12:58 am Dec 14 9:58 pm
1.55 12/15/2017 04:58:40 Dec 14 11:58 pm Dec 14 8:58 pm
1.57 12/15/2017 03:58:56 Dec 14 10:58 pm Dec 14 7:58 pm
1.57 12/15/2017 02:59:12 Dec 14 09:59 pm Dec 14 6:59 pm
1.57 12/15/2017 01:59:28 Dec 14 08:59 pm Dec 14 5:59 pm
1.56 12/15/2017 00:59:44 Dec 14 07:59 pm Dec 14 4:59 pm
1.54 12/15/2017 00:00:00 Dec 14 07:00 pm Dec 14 4:00 pm
1.54 12/14/2017 22:58:08 Dec 14 05:58 pm Dec 14 2:58 pm
1.54 12/14/2017 21:58:24 Dec 14 04:58 pm Dec 14 1:58 pm
1.54 12/14/2017 20:58:40 Dec 14 03:58 pm Dec 14 12:58 pm
1.54 12/14/2017 19:58:56 Dec 14 02:58 pm Dec 14 11:58 am
1.54 12/14/2017 18:59:12 Dec 14 01:59 pm Dec 14 10:59 am
1.54 12/14/2017 17:59:28 Dec 14 12:59 pm Dec 14 9:59 am
1.57 12/14/2017 16:00:00 Dec 14 11:00 am Dec 14 8:00 am
1.57 12/14/2017 13:58:24 Dec 14 08:58 am Dec 14 5:58 am
1.57 12/14/2017 12:58:40 Dec 14 07:58 am Dec 14 4:58 am
1.57 12/14/2017 11:58:56 Dec 14 06:58 am Dec 14 3:58 am
1.56 12/14/2017 10:59:12 Dec 14 05:59 am Dec 14 2:59 am
1.56 12/14/2017 09:59:28 Dec 14 04:59 am Dec 14 1:59 am
1.56 12/14/2017 08:59:44 Dec 14 03:59 am Dec 14 12:59 am
1.57 12/14/2017 08:00:00 Dec 14 03:00 am Dec 14 12:00 am
1.57 12/14/2017 06:58:08 Dec 14 01:58 am Dec 13 10:58 pm
1.57 12/14/2017 05:58:24 Dec 14 12:58 am Dec 13 9:58 pm
1.60 12/14/2017 04:58:40 Dec 13 11:58 pm Dec 13 8:58 pm
1.58 12/14/2017 03:58:56 Dec 13 10:58 pm Dec 13 7:58 pm
1.59 12/14/2017 02:59:12 Dec 13 09:59 pm Dec 13 6:59 pm
1.58 12/14/2017 01:59:28 Dec 13 08:59 pm Dec 13 5:59 pm
1.57 12/14/2017 00:59:44 Dec 13 07:59 pm Dec 13 4:59 pm
1.56 12/14/2017 00:00:00 Dec 13 07:00 pm Dec 13 4:00 pm
1.57 12/13/2017 22:58:08 Dec 13 05:58 pm Dec 13 2:58 pm
1.57 12/13/2017 21:58:24 Dec 13 04:58 pm Dec 13 1:58 pm
1.56 12/13/2017 20:58:40 Dec 13 03:58 pm Dec 13 12:58 pm
1.57 12/13/2017 19:58:56 Dec 13 02:58 pm Dec 13 11:58 am
1.57 12/13/2017 18:59:12 Dec 13 01:59 pm Dec 13 10:59 am
1.58 12/13/2017 17:59:28 Dec 13 12:59 pm Dec 13 9:59 am
1.60 12/13/2017 16:00:00 Dec 13 11:00 am Dec 13 8:00 am
1.61 12/13/2017 14:58:08 Dec 13 09:58 am Dec 13 6:58 am
1.61 12/13/2017 13:58:24 Dec 13 08:58 am Dec 13 5:58 am
1.61 12/13/2017 12:58:40 Dec 13 07:58 am Dec 13 4:58 am
1.62 12/13/2017 11:58:56 Dec 13 06:58 am Dec 13 3:58 am
1.62 12/13/2017 10:59:12 Dec 13 05:59 am Dec 13 2:59 am
1.62 12/13/2017 09:59:28 Dec 13 04:59 am Dec 13 1:59 am
1.62 12/13/2017 08:59:44 Dec 13 03:59 am Dec 13 12:59 am
1.63 12/13/2017 08:00:00 Dec 13 03:00 am Dec 13 12:00 am
1.63 12/13/2017 06:58:08 Dec 13 01:58 am Dec 12 10:58 pm
1.63 12/13/2017 05:58:24 Dec 13 12:58 am Dec 12 9:58 pm
1.63 12/13/2017 04:58:40 Dec 12 11:58 pm Dec 12 8:58 pm
1.63 12/13/2017 03:58:56 Dec 12 10:58 pm Dec 12 7:58 pm
1.63 12/13/2017 02:59:12 Dec 12 09:59 pm Dec 12 6:59 pm
1.61 12/13/2017 01:59:28 Dec 12 08:59 pm Dec 12 5:59 pm
1.60 12/13/2017 00:59:44 Dec 12 07:59 pm Dec 12 4:59 pm
1.60 12/13/2017 00:00:00 Dec 12 07:00 pm Dec 12 4:00 pm
1.60 12/12/2017 22:58:08 Dec 12 05:58 pm Dec 12 2:58 pm
1.60 12/12/2017 21:58:24 Dec 12 04:58 pm Dec 12 1:58 pm
1.60 12/12/2017 20:58:40 Dec 12 03:58 pm Dec 12 12:58 pm
1.61 12/12/2017 19:58:56 Dec 12 02:58 pm Dec 12 11:58 am
1.64 12/12/2017 17:59:28 Dec 12 12:59 pm Dec 12 9:59 am
1.62 12/12/2017 16:00:00 Dec 12 11:00 am Dec 12 8:00 am
1.62 12/12/2017 14:58:08 Dec 12 09:58 am Dec 12 6:58 am
1.62 12/12/2017 13:58:24 Dec 12 08:58 am Dec 12 5:58 am
1.62 12/12/2017 12:58:40 Dec 12 07:58 am Dec 12 4:58 am
1.62 12/12/2017 11:58:56 Dec 12 06:58 am Dec 12 3:58 am
1.62 12/12/2017 10:59:12 Dec 12 05:59 am Dec 12 2:59 am
1.62 12/12/2017 09:59:28 Dec 12 04:59 am Dec 12 1:59 am
1.62 12/12/2017 08:59:44 Dec 12 03:59 am Dec 12 12:59 am
1.62 12/12/2017 08:00:00 Dec 12 03:00 am Dec 12 12:00 am
1.62 12/12/2017 06:58:08 Dec 12 01:58 am Dec 11 10:58 pm
1.62 12/12/2017 05:58:24 Dec 12 12:58 am Dec 11 9:58 pm
1.63 12/12/2017 04:58:40 Dec 11 11:58 pm Dec 11 8:58 pm
1.60 12/12/2017 03:58:56 Dec 11 10:58 pm Dec 11 7:58 pm
1.59 12/12/2017 02:59:12 Dec 11 09:59 pm Dec 11 6:59 pm
1.60 12/12/2017 01:59:28 Dec 11 08:59 pm Dec 11 5:59 pm
1.60 12/12/2017 00:59:44 Dec 11 07:59 pm Dec 11 4:59 pm
1.60 12/12/2017 00:00:00 Dec 11 07:00 pm Dec 11 4:00 pm
1.60 12/11/2017 22:58:08 Dec 11 05:58 pm Dec 11 2:58 pm
1.60 12/11/2017 21:58:24 Dec 11 04:58 pm Dec 11 1:58 pm
1.61 12/11/2017 20:58:40 Dec 11 03:58 pm Dec 11 12:58 pm
1.63 12/11/2017 19:58:56 Dec 11 02:58 pm Dec 11 11:58 am
1.63 12/11/2017 18:59:12 Dec 11 01:59 pm Dec 11 10:59 am
1.63 12/11/2017 17:59:28 Dec 11 12:59 pm Dec 11 9:59 am
1.63 12/11/2017 16:00:00 Dec 11 11:00 am Dec 11 8:00 am
1.64 12/11/2017 14:58:08 Dec 11 09:58 am Dec 11 6:58 am
1.64 12/11/2017 13:58:24 Dec 11 08:58 am Dec 11 5:58 am
1.64 12/11/2017 12:58:40 Dec 11 07:58 am Dec 11 4:58 am
1.64 12/11/2017 11:58:56 Dec 11 06:58 am Dec 11 3:58 am
1.64 12/11/2017 10:59:12 Dec 11 05:59 am Dec 11 2:59 am
1.64 12/11/2017 09:59:28 Dec 11 04:59 am Dec 11 1:59 am
1.64 12/11/2017 08:59:44 Dec 11 03:59 am Dec 11 12:59 am
1.65 12/11/2017 08:00:00 Dec 11 03:00 am Dec 11 12:00 am
1.65 12/11/2017 06:58:08 Dec 11 01:58 am Dec 10 10:58 pm
1.65 12/11/2017 05:58:24 Dec 11 12:58 am Dec 10 9:58 pm
1.69 12/11/2017 04:58:40 Dec 10 11:58 pm Dec 10 8:58 pm
1.64 12/11/2017 03:58:56 Dec 10 10:58 pm Dec 10 7:58 pm
1.64 12/11/2017 02:59:12 Dec 10 09:59 pm Dec 10 6:59 pm
1.64 12/11/2017 01:59:28 Dec 10 08:59 pm Dec 10 5:59 pm
1.65 12/11/2017 00:59:44 Dec 10 07:59 pm Dec 10 4:59 pm
1.65 12/11/2017 00:00:00 Dec 10 07:00 pm Dec 10 4:00 pm
1.65 12/10/2017 22:58:08 Dec 10 05:58 pm Dec 10 2:58 pm
1.66 12/10/2017 21:58:24 Dec 10 04:58 pm Dec 10 1:58 pm
1.67 12/10/2017 20:58:40 Dec 10 03:58 pm Dec 10 12:58 pm
1.68 12/10/2017 19:58:56 Dec 10 02:58 pm Dec 10 11:58 am
1.68 12/10/2017 18:59:12 Dec 10 01:59 pm Dec 10 10:59 am
1.69 12/10/2017 17:59:28 Dec 10 12:59 pm Dec 10 9:59 am
1.70 12/10/2017 16:00:00 Dec 10 11:00 am Dec 10 8:00 am
1.70 12/10/2017 14:58:08 Dec 10 09:58 am Dec 10 6:58 am
1.71 12/10/2017 13:58:24 Dec 10 08:58 am Dec 10 5:58 am
1.73 12/10/2017 12:58:40 Dec 10 07:58 am Dec 10 4:58 am
1.73 12/10/2017 11:58:56 Dec 10 06:58 am Dec 10 3:58 am
1.72 12/10/2017 10:59:12 Dec 10 05:59 am Dec 10 2:59 am
1.72 12/10/2017 09:59:28 Dec 10 04:59 am Dec 10 1:59 am
1.72 12/10/2017 08:59:44 Dec 10 03:59 am Dec 10 12:59 am
1.73 12/10/2017 08:00:00 Dec 10 03:00 am Dec 10 12:00 am
1.73 12/10/2017 06:58:08 Dec 10 01:58 am Dec 9 10:58 pm
1.71 12/10/2017 05:58:24 Dec 10 12:58 am Dec 9 9:58 pm
1.74 12/10/2017 04:58:40 Dec 9 11:58 pm Dec 9 8:58 pm
1.72 12/10/2017 03:58:56 Dec 9 10:58 pm Dec 9 7:58 pm
1.72 12/10/2017 02:59:12 Dec 9 09:59 pm Dec 9 6:59 pm
1.72 12/10/2017 01:59:28 Dec 9 08:59 pm Dec 9 5:59 pm
1.72 12/10/2017 00:59:44 Dec 9 07:59 pm Dec 9 4:59 pm
1.72 12/10/2017 00:00:00 Dec 9 07:00 pm Dec 9 4:00 pm
1.72 12/09/2017 22:58:08 Dec 9 05:58 pm Dec 9 2:58 pm
1.73 12/09/2017 21:58:24 Dec 9 04:58 pm Dec 9 1:58 pm
1.74 12/09/2017 20:58:40 Dec 9 03:58 pm Dec 9 12:58 pm
1.74 12/09/2017 19:58:56 Dec 9 02:58 pm Dec 9 11:58 am
1.74 12/09/2017 18:59:12 Dec 9 01:59 pm Dec 9 10:59 am
1.74 12/09/2017 17:59:28 Dec 9 12:59 pm Dec 9 9:59 am
1.74 12/09/2017 16:00:00 Dec 9 11:00 am Dec 9 8:00 am
1.75 12/09/2017 14:58:08 Dec 9 09:58 am Dec 9 6:58 am
1.75 12/09/2017 13:58:24 Dec 9 08:58 am Dec 9 5:58 am
1.76 12/09/2017 12:58:40 Dec 9 07:58 am Dec 9 4:58 am
1.76 12/09/2017 11:58:56 Dec 9 06:58 am Dec 9 3:58 am
1.76 12/09/2017 10:59:12 Dec 9 05:59 am Dec 9 2:59 am
1.76 12/09/2017 09:59:28 Dec 9 04:59 am Dec 9 1:59 am
1.75 12/09/2017 08:59:44 Dec 9 03:59 am Dec 9 12:59 am
1.75 12/09/2017 08:00:00 Dec 9 03:00 am Dec 9 12:00 am
1.74 12/09/2017 06:58:08 Dec 9 01:58 am Dec 8 10:58 pm
1.73 12/09/2017 05:58:24 Dec 9 12:58 am Dec 8 9:58 pm
1.74 12/09/2017 04:58:40 Dec 8 11:58 pm Dec 8 8:58 pm
1.73 12/09/2017 03:58:56 Dec 8 10:58 pm Dec 8 7:58 pm
1.73 12/09/2017 02:59:12 Dec 8 09:59 pm Dec 8 6:59 pm
1.73 12/09/2017 00:59:44 Dec 8 07:59 pm Dec 8 4:59 pm
1.73 12/09/2017 00:00:00 Dec 8 07:00 pm Dec 8 4:00 pm
1.74 12/08/2017 22:58:08 Dec 8 05:58 pm Dec 8 2:58 pm
1.74 12/08/2017 21:58:24 Dec 8 04:58 pm Dec 8 1:58 pm
1.74 12/08/2017 20:58:40 Dec 8 03:58 pm Dec 8 12:58 pm
1.75 12/08/2017 19:58:56 Dec 8 02:58 pm Dec 8 11:58 am
1.75 12/08/2017 18:59:12 Dec 8 01:59 pm Dec 8 10:59 am
1.74 12/08/2017 17:59:28 Dec 8 12:59 pm Dec 8 9:59 am
1.75 12/08/2017 16:00:00 Dec 8 11:00 am Dec 8 8:00 am
1.75 12/08/2017 14:58:08 Dec 8 09:58 am Dec 8 6:58 am
1.76 12/08/2017 13:58:24 Dec 8 08:58 am Dec 8 5:58 am
1.76 12/08/2017 12:58:40 Dec 8 07:58 am Dec 8 4:58 am
1.77 12/08/2017 11:58:56 Dec 8 06:58 am Dec 8 3:58 am
1.77 12/08/2017 10:59:12 Dec 8 05:59 am Dec 8 2:59 am
1.77 12/08/2017 09:59:28 Dec 8 04:59 am Dec 8 1:59 am
1.77 12/08/2017 08:59:44 Dec 8 03:59 am Dec 8 12:59 am
1.79 12/08/2017 08:00:00 Dec 8 03:00 am Dec 8 12:00 am
1.78 12/08/2017 06:58:08 Dec 8 01:58 am Dec 7 10:58 pm
1.78 12/08/2017 05:58:24 Dec 8 12:58 am Dec 7 9:58 pm
1.87 12/08/2017 04:58:40 Dec 7 11:58 pm Dec 7 8:58 pm
1.79 12/08/2017 03:58:56 Dec 7 10:58 pm Dec 7 7:58 pm
1.79 12/08/2017 02:59:12 Dec 7 09:59 pm Dec 7 6:59 pm
1.80 12/08/2017 01:59:28 Dec 7 08:59 pm Dec 7 5:59 pm
1.80 12/08/2017 00:59:44 Dec 7 07:59 pm Dec 7 4:59 pm
1.80 12/08/2017 00:00:00 Dec 7 07:00 pm Dec 7 4:00 pm
1.82 12/07/2017 22:58:08 Dec 7 05:58 pm Dec 7 2:58 pm
1.84 12/07/2017 21:58:24 Dec 7 04:58 pm Dec 7 1:58 pm
1.84 12/07/2017 20:58:40 Dec 7 03:58 pm Dec 7 12:58 pm
1.84 12/07/2017 19:58:56 Dec 7 02:58 pm Dec 7 11:58 am
1.85 12/07/2017 18:59:12 Dec 7 01:59 pm Dec 7 10:59 am
1.86 12/07/2017 17:59:28 Dec 7 12:59 pm Dec 7 9:59 am
1.88 12/07/2017 16:00:00 Dec 7 11:00 am Dec 7 8:00 am
1.88 12/07/2017 14:58:08 Dec 7 09:58 am Dec 7 6:58 am
1.89 12/07/2017 13:58:24 Dec 7 08:58 am Dec 7 5:58 am
1.90 12/07/2017 12:58:40 Dec 7 07:58 am Dec 7 4:58 am
1.92 12/07/2017 11:58:56 Dec 7 06:58 am Dec 7 3:58 am
1.93 12/07/2017 10:59:12 Dec 7 05:59 am Dec 7 2:59 am
1.94 12/07/2017 09:59:28 Dec 7 04:59 am Dec 7 1:59 am
1.95 12/07/2017 08:59:44 Dec 7 03:59 am Dec 7 12:59 am
1.96 12/07/2017 08:00:00 Dec 7 03:00 am Dec 7 12:00 am
1.97 12/07/2017 06:58:08 Dec 7 01:58 am Dec 6 10:58 pm
1.98 12/07/2017 05:58:24 Dec 7 12:58 am Dec 6 9:58 pm
2.28 12/07/2017 04:58:40 Dec 6 11:58 pm Dec 6 8:58 pm
2.00 12/07/2017 03:58:56 Dec 6 10:58 pm Dec 6 7:58 pm
2.01 12/07/2017 02:59:12 Dec 6 09:59 pm Dec 6 6:59 pm
2.03 12/07/2017 01:59:28 Dec 6 08:59 pm Dec 6 5:59 pm
2.04 12/07/2017 00:59:44 Dec 6 07:59 pm Dec 6 4:59 pm
2.07 12/07/2017 00:00:00 Dec 6 07:00 pm Dec 6 4:00 pm
2.09 12/06/2017 22:58:08 Dec 6 05:58 pm Dec 6 2:58 pm
2.12 12/06/2017 21:58:24 Dec 6 04:58 pm Dec 6 1:58 pm
2.15 12/06/2017 20:58:40 Dec 6 03:58 pm Dec 6 12:58 pm
2.18 12/06/2017 19:58:56 Dec 6 02:58 pm Dec 6 11:58 am
2.21 12/06/2017 18:59:12 Dec 6 01:59 pm Dec 6 10:59 am
2.25 12/06/2017 17:59:28 Dec 6 12:59 pm Dec 6 9:59 am
2.31 12/06/2017 16:00:00 Dec 6 11:00 am Dec 6 8:00 am
2.36 12/06/2017 14:58:08 Dec 6 09:58 am Dec 6 6:58 am
2.40 12/06/2017 13:58:24 Dec 6 08:58 am Dec 6 5:58 am
2.42 12/06/2017 12:58:40 Dec 6 07:58 am Dec 6 4:58 am
2.44 12/06/2017 11:58:56 Dec 6 06:58 am Dec 6 3:58 am
2.40 12/06/2017 10:59:12 Dec 6 05:59 am Dec 6 2:59 am
2.10 12/06/2017 09:59:28 Dec 6 04:59 am Dec 6 1:59 am
2.02 12/06/2017 08:59:44 Dec 6 03:59 am Dec 6 12:59 am
1.98 12/06/2017 08:00:00 Dec 6 03:00 am Dec 6 12:00 am
1.92 12/06/2017 06:58:08 Dec 6 01:58 am Dec 5 10:58 pm
1.86 12/06/2017 05:58:24 Dec 6 12:58 am Dec 5 9:58 pm
1.45 12/06/2017 04:58:40 Dec 5 11:58 pm Dec 5 8:58 pm
1.77 12/06/2017 03:58:56 Dec 5 10:58 pm Dec 5 7:58 pm
1.72 12/06/2017 02:59:12 Dec 5 09:59 pm Dec 5 6:59 pm
1.72 12/06/2017 01:59:28 Dec 5 08:59 pm Dec 5 5:59 pm
1.74 12/06/2017 00:59:44 Dec 5 07:59 pm Dec 5 4:59 pm
1.74 12/06/2017 00:00:00 Dec 5 07:00 pm Dec 5 4:00 pm
1.69 12/05/2017 22:58:08 Dec 5 05:58 pm Dec 5 2:58 pm
1.63 12/05/2017 21:58:24 Dec 5 04:58 pm Dec 5 1:58 pm
1.61 12/05/2017 20:58:40 Dec 5 03:58 pm Dec 5 12:58 pm
1.59 12/05/2017 19:58:56 Dec 5 02:58 pm Dec 5 11:58 am
1.57 12/05/2017 18:59:12 Dec 5 01:59 pm Dec 5 10:59 am
1.54 12/05/2017 17:59:28 Dec 5 12:59 pm Dec 5 9:59 am
1.43 12/05/2017 16:00:00 Dec 5 11:00 am Dec 5 8:00 am
1.42 12/05/2017 14:58:08 Dec 5 09:58 am Dec 5 6:58 am
1.43 12/04/2017 14:58:08 Dec 4 09:58 am Dec 4 6:58 am
1.43 12/04/2017 13:58:24 Dec 4 08:58 am Dec 4 5:58 am
1.44 12/04/2017 12:58:40 Dec 4 07:58 am Dec 4 4:58 am
1.44 12/04/2017 11:58:56 Dec 4 06:58 am Dec 4 3:58 am
1.44 12/04/2017 10:59:12 Dec 4 05:59 am Dec 4 2:59 am
1.44 12/04/2017 09:59:28 Dec 4 04:59 am Dec 4 1:59 am
1.44 12/04/2017 08:59:44 Dec 4 03:59 am Dec 4 12:59 am
1.44 12/04/2017 08:00:00 Dec 4 03:00 am Dec 4 12:00 am
1.44 12/04/2017 06:58:08 Dec 4 01:58 am Dec 3 10:58 pm
1.44 12/04/2017 05:58:24 Dec 4 12:58 am Dec 3 9:58 pm
1.45 12/04/2017 04:58:40 Dec 3 11:58 pm Dec 3 8:58 pm
1.45 12/04/2017 03:58:56 Dec 3 10:58 pm Dec 3 7:58 pm
1.46 12/04/2017 02:59:12 Dec 3 09:59 pm Dec 3 6:59 pm
1.45 12/04/2017 01:59:28 Dec 3 08:59 pm Dec 3 5:59 pm
1.45 12/04/2017 00:59:44 Dec 3 07:59 pm Dec 3 4:59 pm
1.44 12/04/2017 00:00:00 Dec 3 07:00 pm Dec 3 4:00 pm
1.44 12/03/2017 22:58:08 Dec 3 05:58 pm Dec 3 2:58 pm
1.44 12/03/2017 21:58:24 Dec 3 04:58 pm Dec 3 1:58 pm
1.44 12/03/2017 20:58:40 Dec 3 03:58 pm Dec 3 12:58 pm
1.45 12/03/2017 19:58:56 Dec 3 02:58 pm Dec 3 11:58 am
1.45 12/03/2017 18:59:12 Dec 3 01:59 pm Dec 3 10:59 am
1.45 12/03/2017 17:59:28 Dec 3 12:59 pm Dec 3 9:59 am
1.46 12/03/2017 16:00:00 Dec 3 11:00 am Dec 3 8:00 am
1.46 12/03/2017 14:58:08 Dec 3 09:58 am Dec 3 6:58 am
1.46 12/03/2017 13:58:24 Dec 3 08:58 am Dec 3 5:58 am
1.46 12/03/2017 12:58:40 Dec 3 07:58 am Dec 3 4:58 am
1.46 12/03/2017 11:58:56 Dec 3 06:58 am Dec 3 3:58 am
1.46 12/03/2017 10:59:12 Dec 3 05:59 am Dec 3 2:59 am
1.46 12/03/2017 09:59:28 Dec 3 04:59 am Dec 3 1:59 am
1.47 12/03/2017 08:59:44 Dec 3 03:59 am Dec 3 12:59 am
1.47 12/03/2017 08:00:00 Dec 3 03:00 am Dec 3 12:00 am
1.47 12/03/2017 06:58:08 Dec 3 01:58 am Dec 2 10:58 pm
1.47 12/03/2017 05:58:24 Dec 3 12:58 am Dec 2 9:58 pm
1.49 12/03/2017 04:58:40 Dec 2 11:58 pm Dec 2 8:58 pm
1.47 12/03/2017 03:58:56 Dec 2 10:58 pm Dec 2 7:58 pm
1.48 12/03/2017 02:59:12 Dec 2 09:59 pm Dec 2 6:59 pm
1.48 12/03/2017 01:59:28 Dec 2 08:59 pm Dec 2 5:59 pm
1.48 12/03/2017 00:59:44 Dec 2 07:59 pm Dec 2 4:59 pm
1.47 12/03/2017 00:00:00 Dec 2 07:00 pm Dec 2 4:00 pm
1.47 12/02/2017 22:58:08 Dec 2 05:58 pm Dec 2 2:58 pm
1.47 12/02/2017 21:58:24 Dec 2 04:58 pm Dec 2 1:58 pm
1.47 12/02/2017 20:58:40 Dec 2 03:58 pm Dec 2 12:58 pm
1.47 12/02/2017 19:58:56 Dec 2 02:58 pm Dec 2 11:58 am
1.47 12/02/2017 18:59:12 Dec 2 01:59 pm Dec 2 10:59 am
1.48 12/02/2017 17:59:28 Dec 2 12:59 pm Dec 2 9:59 am
1.49 12/02/2017 16:00:00 Dec 2 11:00 am Dec 2 8:00 am
1.49 12/02/2017 14:58:08 Dec 2 09:58 am Dec 2 6:58 am
1.49 12/02/2017 13:58:24 Dec 2 08:58 am Dec 2 5:58 am
1.50 12/02/2017 12:58:40 Dec 2 07:58 am Dec 2 4:58 am
1.50 12/02/2017 11:58:56 Dec 2 06:58 am Dec 2 3:58 am
1.51 12/02/2017 10:59:12 Dec 2 05:59 am Dec 2 2:59 am
1.51 12/02/2017 09:59:28 Dec 2 04:59 am Dec 2 1:59 am
1.52 12/02/2017 08:59:44 Dec 2 03:59 am Dec 2 12:59 am
1.52 12/02/2017 08:00:00 Dec 2 03:00 am Dec 2 12:00 am
1.53 12/02/2017 06:58:08 Dec 2 01:58 am Dec 1 10:58 pm
1.53 12/02/2017 05:58:24 Dec 2 12:58 am Dec 1 9:58 pm
1.50 12/02/2017 04:58:40 Dec 1 11:58 pm Dec 1 8:58 pm
1.54 12/02/2017 03:58:56 Dec 1 10:58 pm Dec 1 7:58 pm
1.54 12/02/2017 02:59:12 Dec 1 09:59 pm Dec 1 6:59 pm
1.54 12/02/2017 01:59:28 Dec 1 08:59 pm Dec 1 5:59 pm
1.54 12/02/2017 00:59:44 Dec 1 07:59 pm Dec 1 4:59 pm
1.54 12/02/2017 00:00:00 Dec 1 07:00 pm Dec 1 4:00 pm
1.52 12/01/2017 22:58:08 Dec 1 05:58 pm Dec 1 2:58 pm
1.51 12/01/2017 21:58:24 Dec 1 04:58 pm Dec 1 1:58 pm
1.50 12/01/2017 20:58:40 Dec 1 03:58 pm Dec 1 12:58 pm
1.50 12/01/2017 19:58:56 Dec 1 02:58 pm Dec 1 11:58 am
1.50 12/01/2017 18:59:12 Dec 1 01:59 pm Dec 1 10:59 am
1.50 12/01/2017 17:59:28 Dec 1 12:59 pm Dec 1 9:59 am
1.50 12/01/2017 16:00:00 Dec 1 11:00 am Dec 1 8:00 am

Flow

Gauge History

Times listed in GMT 24h, ET and PT hours provided for convenience Graphs in GMT. Readings of "n/a" constitute a frozen gauge or gauge error.
Reading Updated (GMT) Eastern Pacific Comment
199.00 12/16/2017 04:58:40 Dec 15 11:58 pm Dec 15 8:58 pm
195.00 12/15/2017 17:59:28 Dec 15 12:59 pm Dec 15 9:59 am
202.00 12/15/2017 16:00:00 Dec 15 11:00 am Dec 15 8:00 am
206.00 12/15/2017 14:58:08 Dec 15 09:58 am Dec 15 6:58 am
210.00 12/15/2017 13:58:24 Dec 15 08:58 am Dec 15 5:58 am
214.00 12/15/2017 12:58:40 Dec 15 07:58 am Dec 15 4:58 am
214.00 12/15/2017 11:58:56 Dec 15 06:58 am Dec 15 3:58 am
214.00 12/15/2017 10:59:12 Dec 15 05:59 am Dec 15 2:59 am
214.00 12/15/2017 09:59:28 Dec 15 04:59 am Dec 15 1:59 am
214.00 12/15/2017 08:59:44 Dec 15 03:59 am Dec 15 12:59 am
214.00 12/15/2017 08:00:00 Dec 15 03:00 am Dec 15 12:00 am
218.00 12/15/2017 06:58:08 Dec 15 01:58 am Dec 14 10:58 pm
218.00 12/15/2017 05:58:24 Dec 15 12:58 am Dec 14 9:58 pm
210.00 12/15/2017 04:58:40 Dec 14 11:58 pm Dec 14 8:58 pm
218.00 12/15/2017 03:58:56 Dec 14 10:58 pm Dec 14 7:58 pm
218.00 12/15/2017 02:59:12 Dec 14 09:59 pm Dec 14 6:59 pm
218.00 12/15/2017 01:59:28 Dec 14 08:59 pm Dec 14 5:59 pm
214.00 12/15/2017 00:59:44 Dec 14 07:59 pm Dec 14 4:59 pm
206.00 12/15/2017 00:00:00 Dec 14 07:00 pm Dec 14 4:00 pm
206.00 12/14/2017 22:58:08 Dec 14 05:58 pm Dec 14 2:58 pm
206.00 12/14/2017 21:58:24 Dec 14 04:58 pm Dec 14 1:58 pm
206.00 12/14/2017 20:58:40 Dec 14 03:58 pm Dec 14 12:58 pm
206.00 12/14/2017 19:58:56 Dec 14 02:58 pm Dec 14 11:58 am
206.00 12/14/2017 18:59:12 Dec 14 01:59 pm Dec 14 10:59 am
206.00 12/14/2017 17:59:28 Dec 14 12:59 pm Dec 14 9:59 am
218.00 12/14/2017 16:00:00 Dec 14 11:00 am Dec 14 8:00 am
218.00 12/14/2017 13:58:24 Dec 14 08:58 am Dec 14 5:58 am
218.00 12/14/2017 12:58:40 Dec 14 07:58 am Dec 14 4:58 am
218.00 12/14/2017 11:58:56 Dec 14 06:58 am Dec 14 3:58 am
214.00 12/14/2017 10:59:12 Dec 14 05:59 am Dec 14 2:59 am
214.00 12/14/2017 09:59:28 Dec 14 04:59 am Dec 14 1:59 am
214.00 12/14/2017 08:59:44 Dec 14 03:59 am Dec 14 12:59 am
218.00 12/14/2017 08:00:00 Dec 14 03:00 am Dec 14 12:00 am
218.00 12/14/2017 06:58:08 Dec 14 01:58 am Dec 13 10:58 pm
218.00 12/14/2017 05:58:24 Dec 14 12:58 am Dec 13 9:58 pm
231.00 12/14/2017 04:58:40 Dec 13 11:58 pm Dec 13 8:58 pm
223.00 12/14/2017 03:58:56 Dec 13 10:58 pm Dec 13 7:58 pm
227.00 12/14/2017 02:59:12 Dec 13 09:59 pm Dec 13 6:59 pm
223.00 12/14/2017 01:59:28 Dec 13 08:59 pm Dec 13 5:59 pm
218.00 12/14/2017 00:59:44 Dec 13 07:59 pm Dec 13 4:59 pm
214.00 12/14/2017 00:00:00 Dec 13 07:00 pm Dec 13 4:00 pm
218.00 12/13/2017 22:58:08 Dec 13 05:58 pm Dec 13 2:58 pm
218.00 12/13/2017 21:58:24 Dec 13 04:58 pm Dec 13 1:58 pm
214.00 12/13/2017 20:58:40 Dec 13 03:58 pm Dec 13 12:58 pm
218.00 12/13/2017 19:58:56 Dec 13 02:58 pm Dec 13 11:58 am
218.00 12/13/2017 18:59:12 Dec 13 01:59 pm Dec 13 10:59 am
223.00 12/13/2017 17:59:28 Dec 13 12:59 pm Dec 13 9:59 am
231.00 12/13/2017 16:00:00 Dec 13 11:00 am Dec 13 8:00 am
235.00 12/13/2017 14:58:08 Dec 13 09:58 am Dec 13 6:58 am
235.00 12/13/2017 13:58:24 Dec 13 08:58 am Dec 13 5:58 am
235.00 12/13/2017 12:58:40 Dec 13 07:58 am Dec 13 4:58 am
240.00 12/13/2017 11:58:56 Dec 13 06:58 am Dec 13 3:58 am
240.00 12/13/2017 10:59:12 Dec 13 05:59 am Dec 13 2:59 am
240.00 12/13/2017 09:59:28 Dec 13 04:59 am Dec 13 1:59 am
240.00 12/13/2017 08:59:44 Dec 13 03:59 am Dec 13 12:59 am
244.00 12/13/2017 08:00:00 Dec 13 03:00 am Dec 13 12:00 am
244.00 12/13/2017 06:58:08 Dec 13 01:58 am Dec 12 10:58 pm
244.00 12/13/2017 05:58:24 Dec 13 12:58 am Dec 12 9:58 pm
244.00 12/13/2017 04:58:40 Dec 12 11:58 pm Dec 12 8:58 pm
244.00 12/13/2017 03:58:56 Dec 12 10:58 pm Dec 12 7:58 pm
244.00 12/13/2017 02:59:12 Dec 12 09:59 pm Dec 12 6:59 pm
235.00 12/13/2017 01:59:28 Dec 12 08:59 pm Dec 12 5:59 pm
231.00 12/13/2017 00:59:44 Dec 12 07:59 pm Dec 12 4:59 pm
231.00 12/13/2017 00:00:00 Dec 12 07:00 pm Dec 12 4:00 pm
231.00 12/12/2017 22:58:08 Dec 12 05:58 pm Dec 12 2:58 pm
231.00 12/12/2017 21:58:24 Dec 12 04:58 pm Dec 12 1:58 pm
231.00 12/12/2017 20:58:40 Dec 12 03:58 pm Dec 12 12:58 pm
235.00 12/12/2017 19:58:56 Dec 12 02:58 pm Dec 12 11:58 am
248.00 12/12/2017 17:59:28 Dec 12 12:59 pm Dec 12 9:59 am
240.00 12/12/2017 16:00:00 Dec 12 11:00 am Dec 12 8:00 am
240.00 12/12/2017 14:58:08 Dec 12 09:58 am Dec 12 6:58 am
240.00 12/12/2017 13:58:24 Dec 12 08:58 am Dec 12 5:58 am
240.00 12/12/2017 12:58:40 Dec 12 07:58 am Dec 12 4:58 am
240.00 12/12/2017 11:58:56 Dec 12 06:58 am Dec 12 3:58 am
240.00 12/12/2017 10:59:12 Dec 12 05:59 am Dec 12 2:59 am
240.00 12/12/2017 09:59:28 Dec 12 04:59 am Dec 12 1:59 am
240.00 12/12/2017 08:59:44 Dec 12 03:59 am Dec 12 12:59 am
240.00 12/12/2017 08:00:00 Dec 12 03:00 am Dec 12 12:00 am
240.00 12/12/2017 06:58:08 Dec 12 01:58 am Dec 11 10:58 pm
240.00 12/12/2017 05:58:24 Dec 12 12:58 am Dec 11 9:58 pm
244.00 12/12/2017 04:58:40 Dec 11 11:58 pm Dec 11 8:58 pm
231.00 12/12/2017 03:58:56 Dec 11 10:58 pm Dec 11 7:58 pm
227.00 12/12/2017 02:59:12 Dec 11 09:59 pm Dec 11 6:59 pm
231.00 12/12/2017 01:59:28 Dec 11 08:59 pm Dec 11 5:59 pm
231.00 12/12/2017 00:59:44 Dec 11 07:59 pm Dec 11 4:59 pm
231.00 12/12/2017 00:00:00 Dec 11 07:00 pm Dec 11 4:00 pm
231.00 12/11/2017 22:58:08 Dec 11 05:58 pm Dec 11 2:58 pm
231.00 12/11/2017 21:58:24 Dec 11 04:58 pm Dec 11 1:58 pm
235.00 12/11/2017 20:58:40 Dec 11 03:58 pm Dec 11 12:58 pm
244.00 12/11/2017 19:58:56 Dec 11 02:58 pm Dec 11 11:58 am
244.00 12/11/2017 18:59:12 Dec 11 01:59 pm Dec 11 10:59 am
244.00 12/11/2017 17:59:28 Dec 11 12:59 pm Dec 11 9:59 am
244.00 12/11/2017 16:00:00 Dec 11 11:00 am Dec 11 8:00 am
248.00 12/11/2017 14:58:08 Dec 11 09:58 am Dec 11 6:58 am
248.00 12/11/2017 13:58:24 Dec 11 08:58 am Dec 11 5:58 am
248.00 12/11/2017 12:58:40 Dec 11 07:58 am Dec 11 4:58 am
248.00 12/11/2017 11:58:56 Dec 11 06:58 am Dec 11 3:58 am
248.00 12/11/2017 10:59:12 Dec 11 05:59 am Dec 11 2:59 am
248.00 12/11/2017 09:59:28 Dec 11 04:59 am Dec 11 1:59 am
248.00 12/11/2017 08:59:44 Dec 11 03:59 am Dec 11 12:59 am
253.00 12/11/2017 08:00:00 Dec 11 03:00 am Dec 11 12:00 am
253.00 12/11/2017 06:58:08 Dec 11 01:58 am Dec 10 10:58 pm
253.00 12/11/2017 05:58:24 Dec 11 12:58 am Dec 10 9:58 pm
271.00 12/11/2017 04:58:40 Dec 10 11:58 pm Dec 10 8:58 pm
248.00 12/11/2017 03:58:56 Dec 10 10:58 pm Dec 10 7:58 pm
248.00 12/11/2017 02:59:12 Dec 10 09:59 pm Dec 10 6:59 pm
248.00 12/11/2017 01:59:28 Dec 10 08:59 pm Dec 10 5:59 pm
253.00 12/11/2017 00:59:44 Dec 10 07:59 pm Dec 10 4:59 pm
253.00 12/11/2017 00:00:00 Dec 10 07:00 pm Dec 10 4:00 pm
253.00 12/10/2017 22:58:08 Dec 10 05:58 pm Dec 10 2:58 pm
257.00 12/10/2017 21:58:24 Dec 10 04:58 pm Dec 10 1:58 pm
262.00 12/10/2017 20:58:40 Dec 10 03:58 pm Dec 10 12:58 pm
267.00 12/10/2017 19:58:56 Dec 10 02:58 pm Dec 10 11:58 am
267.00 12/10/2017 18:59:12 Dec 10 01:59 pm Dec 10 10:59 am
271.00 12/10/2017 17:59:28 Dec 10 12:59 pm Dec 10 9:59 am
276.00 12/10/2017 16:00:00 Dec 10 11:00 am Dec 10 8:00 am
276.00 12/10/2017 14:58:08 Dec 10 09:58 am Dec 10 6:58 am
281.00 12/10/2017 13:58:24 Dec 10 08:58 am Dec 10 5:58 am
290.00 12/10/2017 12:58:40 Dec 10 07:58 am Dec 10 4:58 am
290.00 12/10/2017 11:58:56 Dec 10 06:58 am Dec 10 3:58 am
286.00 12/10/2017 10:59:12 Dec 10 05:59 am Dec 10 2:59 am
286.00 12/10/2017 09:59:28 Dec 10 04:59 am Dec 10 1:59 am
286.00 12/10/2017 08:59:44 Dec 10 03:59 am Dec 10 12:59 am
290.00 12/10/2017 08:00:00 Dec 10 03:00 am Dec 10 12:00 am
290.00 12/10/2017 06:58:08 Dec 10 01:58 am Dec 9 10:58 pm
281.00 12/10/2017 05:58:24 Dec 10 12:58 am Dec 9 9:58 pm
295.00 12/10/2017 04:58:40 Dec 9 11:58 pm Dec 9 8:58 pm
286.00 12/10/2017 03:58:56 Dec 9 10:58 pm Dec 9 7:58 pm
286.00 12/10/2017 02:59:12 Dec 9 09:59 pm Dec 9 6:59 pm
286.00 12/10/2017 01:59:28 Dec 9 08:59 pm Dec 9 5:59 pm
286.00 12/10/2017 00:59:44 Dec 9 07:59 pm Dec 9 4:59 pm
286.00 12/10/2017 00:00:00 Dec 9 07:00 pm Dec 9 4:00 pm
286.00 12/09/2017 22:58:08 Dec 9 05:58 pm Dec 9 2:58 pm
290.00 12/09/2017 21:58:24 Dec 9 04:58 pm Dec 9 1:58 pm
295.00 12/09/2017 20:58:40 Dec 9 03:58 pm Dec 9 12:58 pm
295.00 12/09/2017 19:58:56 Dec 9 02:58 pm Dec 9 11:58 am
295.00 12/09/2017 18:59:12 Dec 9 01:59 pm Dec 9 10:59 am
295.00 12/09/2017 17:59:28 Dec 9 12:59 pm Dec 9 9:59 am
295.00 12/09/2017 16:00:00 Dec 9 11:00 am Dec 9 8:00 am
300.00 12/09/2017 14:58:08 Dec 9 09:58 am Dec 9 6:58 am
300.00 12/09/2017 13:58:24 Dec 9 08:58 am Dec 9 5:58 am
305.00 12/09/2017 12:58:40 Dec 9 07:58 am Dec 9 4:58 am
305.00 12/09/2017 11:58:56 Dec 9 06:58 am Dec 9 3:58 am
305.00 12/09/2017 10:59:12 Dec 9 05:59 am Dec 9 2:59 am
305.00 12/09/2017 09:59:28 Dec 9 04:59 am Dec 9 1:59 am
300.00 12/09/2017 08:59:44 Dec 9 03:59 am Dec 9 12:59 am
300.00 12/09/2017 08:00:00 Dec 9 03:00 am Dec 9 12:00 am
295.00 12/09/2017 06:58:08 Dec 9 01:58 am Dec 8 10:58 pm
290.00 12/09/2017 05:58:24 Dec 9 12:58 am Dec 8 9:58 pm
295.00 12/09/2017 04:58:40 Dec 8 11:58 pm Dec 8 8:58 pm
290.00 12/09/2017 03:58:56 Dec 8 10:58 pm Dec 8 7:58 pm
290.00 12/09/2017 02:59:12 Dec 8 09:59 pm Dec 8 6:59 pm
290.00 12/09/2017 00:59:44 Dec 8 07:59 pm Dec 8 4:59 pm
290.00 12/09/2017 00:00:00 Dec 8 07:00 pm Dec 8 4:00 pm
295.00 12/08/2017 22:58:08 Dec 8 05:58 pm Dec 8 2:58 pm
295.00 12/08/2017 21:58:24 Dec 8 04:58 pm Dec 8 1:58 pm
295.00 12/08/2017 20:58:40 Dec 8 03:58 pm Dec 8 12:58 pm
300.00 12/08/2017 19:58:56 Dec 8 02:58 pm Dec 8 11:58 am
300.00 12/08/2017 18:59:12 Dec 8 01:59 pm Dec 8 10:59 am
295.00 12/08/2017 17:59:28 Dec 8 12:59 pm Dec 8 9:59 am
300.00 12/08/2017 16:00:00 Dec 8 11:00 am Dec 8 8:00 am
300.00 12/08/2017 14:58:08 Dec 8 09:58 am Dec 8 6:58 am
305.00 12/08/2017 13:58:24 Dec 8 08:58 am Dec 8 5:58 am
305.00 12/08/2017 12:58:40 Dec 8 07:58 am Dec 8 4:58 am
310.00 12/08/2017 11:58:56 Dec 8 06:58 am Dec 8 3:58 am
310.00 12/08/2017 10:59:12 Dec 8 05:59 am Dec 8 2:59 am
310.00 12/08/2017 09:59:28 Dec 8 04:59 am Dec 8 1:59 am
310.00 12/08/2017 08:59:44 Dec 8 03:59 am Dec 8 12:59 am
321.00 12/08/2017 08:00:00 Dec 8 03:00 am Dec 8 12:00 am
316.00 12/08/2017 06:58:08 Dec 8 01:58 am Dec 7 10:58 pm
316.00 12/08/2017 05:58:24 Dec 8 12:58 am Dec 7 9:58 pm
365.00 12/08/2017 04:58:40 Dec 7 11:58 pm Dec 7 8:58 pm
321.00 12/08/2017 03:58:56 Dec 7 10:58 pm Dec 7 7:58 pm
321.00 12/08/2017 02:59:12 Dec 7 09:59 pm Dec 7 6:59 pm
326.00 12/08/2017 01:59:28 Dec 7 08:59 pm Dec 7 5:59 pm
326.00 12/08/2017 00:59:44 Dec 7 07:59 pm Dec 7 4:59 pm
326.00 12/08/2017 00:00:00 Dec 7 07:00 pm Dec 7 4:00 pm
337.00 12/07/2017 22:58:08 Dec 7 05:58 pm Dec 7 2:58 pm
348.00 12/07/2017 21:58:24 Dec 7 04:58 pm Dec 7 1:58 pm
348.00 12/07/2017 20:58:40 Dec 7 03:58 pm Dec 7 12:58 pm
348.00 12/07/2017 19:58:56 Dec 7 02:58 pm Dec 7 11:58 am
353.00 12/07/2017 18:59:12 Dec 7 01:59 pm Dec 7 10:59 am
359.00 12/07/2017 17:59:28 Dec 7 12:59 pm Dec 7 9:59 am
370.00 12/07/2017 16:00:00 Dec 7 11:00 am Dec 7 8:00 am
370.00 12/07/2017 14:58:08 Dec 7 09:58 am Dec 7 6:58 am
376.00 12/07/2017 13:58:24 Dec 7 08:58 am Dec 7 5:58 am
382.00 12/07/2017 12:58:40 Dec 7 07:58 am Dec 7 4:58 am
393.00 12/07/2017 11:58:56 Dec 7 06:58 am Dec 7 3:58 am
398.00 12/07/2017 10:59:12 Dec 7 05:59 am Dec 7 2:59 am
404.00 12/07/2017 09:59:28 Dec 7 04:59 am Dec 7 1:59 am
409.00 12/07/2017 08:59:44 Dec 7 03:59 am Dec 7 12:59 am
415.00 12/07/2017 08:00:00 Dec 7 03:00 am Dec 7 12:00 am
421.00 12/07/2017 06:58:08 Dec 7 01:58 am Dec 6 10:58 pm
426.00 12/07/2017 05:58:24 Dec 7 12:58 am Dec 6 9:58 pm
619.00 12/07/2017 04:58:40 Dec 6 11:58 pm Dec 6 8:58 pm
438.00 12/07/2017 03:58:56 Dec 6 10:58 pm Dec 6 7:58 pm
445.00 12/07/2017 02:59:12 Dec 6 09:59 pm Dec 6 6:59 pm
458.00 12/07/2017 01:59:28 Dec 6 08:59 pm Dec 6 5:59 pm
465.00 12/07/2017 00:59:44 Dec 6 07:59 pm Dec 6 4:59 pm
486.00 12/07/2017 00:00:00 Dec 6 07:00 pm Dec 6 4:00 pm
500.00 12/06/2017 22:58:08 Dec 6 05:58 pm Dec 6 2:58 pm
519.00 12/06/2017 21:58:24 Dec 6 04:58 pm Dec 6 1:58 pm
537.00 12/06/2017 20:58:40 Dec 6 03:58 pm Dec 6 12:58 pm
555.00 12/06/2017 19:58:56 Dec 6 02:58 pm Dec 6 11:58 am
573.00 12/06/2017 18:59:12 Dec 6 01:59 pm Dec 6 10:59 am
599.00 12/06/2017 17:59:28 Dec 6 12:59 pm Dec 6 9:59 am
639.00 12/06/2017 16:00:00 Dec 6 11:00 am Dec 6 8:00 am
673.00 12/06/2017 14:58:08 Dec 6 09:58 am Dec 6 6:58 am
701.00 12/06/2017 13:58:24 Dec 6 08:58 am Dec 6 5:58 am
714.00 12/06/2017 12:58:40 Dec 6 07:58 am Dec 6 4:58 am
727.00 12/06/2017 11:58:56 Dec 6 06:58 am Dec 6 3:58 am
701.00 12/06/2017 10:59:12 Dec 6 05:59 am Dec 6 2:59 am
507.00 12/06/2017 09:59:28 Dec 6 04:59 am Dec 6 1:59 am
451.00 12/06/2017 08:59:44 Dec 6 03:59 am Dec 6 12:59 am
426.00 12/06/2017 08:00:00 Dec 6 03:00 am Dec 6 12:00 am
393.00 12/06/2017 06:58:08 Dec 6 01:58 am Dec 5 10:58 pm
359.00 12/06/2017 05:58:24 Dec 6 12:58 am Dec 5 9:58 pm
173.00 12/06/2017 04:58:40 Dec 5 11:58 pm Dec 5 8:58 pm
310.00 12/06/2017 03:58:56 Dec 5 10:58 pm Dec 5 7:58 pm
286.00 12/06/2017 02:59:12 Dec 5 09:59 pm Dec 5 6:59 pm
286.00 12/06/2017 01:59:28 Dec 5 08:59 pm Dec 5 5:59 pm
295.00 12/06/2017 00:59:44 Dec 5 07:59 pm Dec 5 4:59 pm
295.00 12/06/2017 00:00:00 Dec 5 07:00 pm Dec 5 4:00 pm
271.00 12/05/2017 22:58:08 Dec 5 05:58 pm Dec 5 2:58 pm
244.00 12/05/2017 21:58:24 Dec 5 04:58 pm Dec 5 1:58 pm
235.00 12/05/2017 20:58:40 Dec 5 03:58 pm Dec 5 12:58 pm
227.00 12/05/2017 19:58:56 Dec 5 02:58 pm Dec 5 11:58 am
218.00 12/05/2017 18:59:12 Dec 5 01:59 pm Dec 5 10:59 am
206.00 12/05/2017 17:59:28 Dec 5 12:59 pm Dec 5 9:59 am
166.00 12/05/2017 16:00:00 Dec 5 11:00 am Dec 5 8:00 am
163.00 12/05/2017 14:58:08 Dec 5 09:58 am Dec 5 6:58 am
166.00 12/04/2017 14:58:08 Dec 4 09:58 am Dec 4 6:58 am
166.00 12/04/2017 13:58:24 Dec 4 08:58 am Dec 4 5:58 am
169.00 12/04/2017 12:58:40 Dec 4 07:58 am Dec 4 4:58 am
169.00 12/04/2017 11:58:56 Dec 4 06:58 am Dec 4 3:58 am
169.00 12/04/2017 10:59:12 Dec 4 05:59 am Dec 4 2:59 am
169.00 12/04/2017 09:59:28 Dec 4 04:59 am Dec 4 1:59 am
169.00 12/04/2017 08:59:44 Dec 4 03:59 am Dec 4 12:59 am
169.00 12/04/2017 08:00:00 Dec 4 03:00 am Dec 4 12:00 am
169.00 12/04/2017 06:58:08 Dec 4 01:58 am Dec 3 10:58 pm
169.00 12/04/2017 05:58:24 Dec 4 12:58 am Dec 3 9:58 pm
173.00 12/04/2017 04:58:40 Dec 3 11:58 pm Dec 3 8:58 pm
173.00 12/04/2017 03:58:56 Dec 3 10:58 pm Dec 3 7:58 pm
176.00 12/04/2017 02:59:12 Dec 3 09:59 pm Dec 3 6:59 pm
173.00 12/04/2017 01:59:28 Dec 3 08:59 pm Dec 3 5:59 pm
173.00 12/04/2017 00:59:44 Dec 3 07:59 pm Dec 3 4:59 pm
169.00 12/04/2017 00:00:00 Dec 3 07:00 pm Dec 3 4:00 pm
169.00 12/03/2017 22:58:08 Dec 3 05:58 pm Dec 3 2:58 pm
169.00 12/03/2017 21:58:24 Dec 3 04:58 pm Dec 3 1:58 pm
169.00 12/03/2017 20:58:40 Dec 3 03:58 pm Dec 3 12:58 pm
173.00 12/03/2017 19:58:56 Dec 3 02:58 pm Dec 3 11:58 am
173.00 12/03/2017 18:59:12 Dec 3 01:59 pm Dec 3 10:59 am
173.00 12/03/2017 17:59:28 Dec 3 12:59 pm Dec 3 9:59 am
176.00 12/03/2017 16:00:00 Dec 3 11:00 am Dec 3 8:00 am
176.00 12/03/2017 14:58:08 Dec 3 09:58 am Dec 3 6:58 am
176.00 12/03/2017 13:58:24 Dec 3 08:58 am Dec 3 5:58 am
176.00 12/03/2017 12:58:40 Dec 3 07:58 am Dec 3 4:58 am
176.00 12/03/2017 11:58:56 Dec 3 06:58 am Dec 3 3:58 am
176.00 12/03/2017 10:59:12 Dec 3 05:59 am Dec 3 2:59 am
176.00 12/03/2017 09:59:28 Dec 3 04:59 am Dec 3 1:59 am
180.00 12/03/2017 08:59:44 Dec 3 03:59 am Dec 3 12:59 am
180.00 12/03/2017 08:00:00 Dec 3 03:00 am Dec 3 12:00 am
180.00 12/03/2017 06:58:08 Dec 3 01:58 am Dec 2 10:58 pm
180.00 12/03/2017 05:58:24 Dec 3 12:58 am Dec 2 9:58 pm
187.00 12/03/2017 04:58:40 Dec 2 11:58 pm Dec 2 8:58 pm
180.00 12/03/2017 03:58:56 Dec 2 10:58 pm Dec 2 7:58 pm
184.00 12/03/2017 02:59:12 Dec 2 09:59 pm Dec 2 6:59 pm
184.00 12/03/2017 01:59:28 Dec 2 08:59 pm Dec 2 5:59 pm
184.00 12/03/2017 00:59:44 Dec 2 07:59 pm Dec 2 4:59 pm
180.00 12/03/2017 00:00:00 Dec 2 07:00 pm Dec 2 4:00 pm
180.00 12/02/2017 22:58:08 Dec 2 05:58 pm Dec 2 2:58 pm
180.00 12/02/2017 21:58:24 Dec 2 04:58 pm Dec 2 1:58 pm
180.00 12/02/2017 20:58:40 Dec 2 03:58 pm Dec 2 12:58 pm
180.00 12/02/2017 19:58:56 Dec 2 02:58 pm Dec 2 11:58 am
180.00 12/02/2017 18:59:12 Dec 2 01:59 pm Dec 2 10:59 am
184.00 12/02/2017 17:59:28 Dec 2 12:59 pm Dec 2 9:59 am
187.00 12/02/2017 16:00:00 Dec 2 11:00 am Dec 2 8:00 am
187.00 12/02/2017 14:58:08 Dec 2 09:58 am Dec 2 6:58 am
187.00 12/02/2017 13:58:24 Dec 2 08:58 am Dec 2 5:58 am
191.00 12/02/2017 12:58:40 Dec 2 07:58 am Dec 2 4:58 am
191.00 12/02/2017 11:58:56 Dec 2 06:58 am Dec 2 3:58 am
195.00 12/02/2017 10:59:12 Dec 2 05:59 am Dec 2 2:59 am
195.00 12/02/2017 09:59:28 Dec 2 04:59 am Dec 2 1:59 am
199.00 12/02/2017 08:59:44 Dec 2 03:59 am Dec 2 12:59 am
199.00 12/02/2017 08:00:00 Dec 2 03:00 am Dec 2 12:00 am
202.00 12/02/2017 06:58:08 Dec 2 01:58 am Dec 1 10:58 pm
202.00 12/02/2017 05:58:24 Dec 2 12:58 am Dec 1 9:58 pm
191.00 12/02/2017 04:58:40 Dec 1 11:58 pm Dec 1 8:58 pm
206.00 12/02/2017 03:58:56 Dec 1 10:58 pm Dec 1 7:58 pm
206.00 12/02/2017 02:59:12 Dec 1 09:59 pm Dec 1 6:59 pm
206.00 12/02/2017 01:59:28 Dec 1 08:59 pm Dec 1 5:59 pm
206.00 12/02/2017 00:59:44 Dec 1 07:59 pm Dec 1 4:59 pm
206.00 12/02/2017 00:00:00 Dec 1 07:00 pm Dec 1 4:00 pm
199.00 12/01/2017 22:58:08 Dec 1 05:58 pm Dec 1 2:58 pm
195.00 12/01/2017 21:58:24 Dec 1 04:58 pm Dec 1 1:58 pm
191.00 12/01/2017 20:58:40 Dec 1 03:58 pm Dec 1 12:58 pm
191.00 12/01/2017 19:58:56 Dec 1 02:58 pm Dec 1 11:58 am
191.00 12/01/2017 18:59:12 Dec 1 01:59 pm Dec 1 10:59 am
191.00 12/01/2017 17:59:28 Dec 1 12:59 pm Dec 1 9:59 am
191.00 12/01/2017 16:00:00 Dec 1 11:00 am Dec 1 8:00 am

Report - Reports of Related Gauges

Reports give the public a chance to report on river conditions throughout the country as well as log the history of a river.

Reports

No Reports Filed

Linked Reaches

Click a heading to sort. Hover over a heading for help.
River Name/Section Class Level running? Updated
Little Pigeon, Middle Prong [TN] 4. Highway 73 to Richardson Cove II-III 199 cfs
-0 cfs/hr
L3-
Below Recom.
-09h19m